Location: Unspecified
(0.0000°N, 0.0000°E)
Time: 14:58:22
(UTC+00:00)

STARLINK-36990 - Pass Details

Date: 04 March 2026
Orbit: 262 x 263 km, 53.2° (Epoch: 6 March)

Event Time Altitude Azimuth Distance (km) Brightness Sun altitude
Rises 19:00:56 0° 218° (SW) 1,824 6.0 -12.2°
Reaches altitude 10° 19:02:48 10° 221° (SW) 1,026 4.7 -12.7°
Maximum altitude 19:05:03 63° 303° (WNW) 286 1.4 -13.3°
Enters shadow 19:06:22 21° 22° (NNE) 646 2.7 -13.6°
